コイアス彗星

C/2015 K7 ( COIAS )

English version
Home page
Updated on April 9, 2025

---------------------------------------------------------------------

・ プロフィール

発見日 2015年5月17日
発見光度 23.4等
発見者 A. Yamauchi (Come On! Impacting ASteroids (COIAS))

・ 軌道要素

Epoch 2013 Mar. 9.0 TT = JDT 2456360.5                                          
T 2013 Feb. 20.05507 TT                                 Veres                   
q   9.9404246            (2000.0)            P               Q                  
z  -0.0004400      Peri.    5.10332     -0.28986878     -0.89606426             
 +/-0.0000008      Node   257.93548     -0.88980806     +0.12295077             
e   1.0043734      Incl.  159.89050     -0.35244533     +0.42655827             
From-Y6659 observations 2013 Mar. 9-2015 May 26, mean residual 0".3.            

・ 光度変化

        m1 = 7.0 + 5 logΔ + 10.0 log r

---------------------------------------------------------------------

軌道要素はM.P.E.C. 2024-Y66に掲載されたものです。
光度グラフはComet for Windowsで作成したものです。

---------------------------------------------------------------------

Copyright(C) Seiichi Yoshida (comet@aerith.net). All rights reserved.